Overview Statistics Trail Chart Weather Telemetry Raw packets
 

This is the latest recevied weather packets stored in our database for station/object IU5GBO-13. If no packets are shown the sender has not sent any weather packets the latest 10 day(s).

<< 38 39 40 41 42 43 44 >>
Time Temp. Humidity Pressure Rain* Wind** Luminosity Snow
1777482972 20.56° C 43% 1015.5 hPa - - - -
1777482372 21.11° C 42% 1015.5 hPa - - - -
1777481773 21.11° C 41% 1015.6 hPa - - - -
1777481172 21.67° C 39% 1015.5 hPa - - - -
1777480572 21.67° C 38% 1015.5 hPa - - - -
1777479972 21.67° C 36% 1015.5 hPa - - - -
1777479372 21.67° C 36% 1015.6 hPa - - - -
1777478772 22.22° C 36% 1015.6 hPa - - - -
1777478172 22.22° C 35% 1015.6 hPa - - - -
1777477572 22.22° C 34% 1015.7 hPa - - - -
1777476972 22.78° C 35% 1015.7 hPa - - - -
1777476372 22.78° C 33% 1015.6 hPa - - - -
1777475772 23.33° C 33% 1015.7 hPa - - - -
1777475172 22.78° C 31% 1015.7 hPa - - - -
1777474572 22.78° C 30% 1015.8 hPa - - - -
1777473972 23.33° C 29% 1015.7 hPa - - - -
1777473372 23.89° C 28% 1015.8 hPa - - - -
1777472772 23.33° C 29% 1015.8 hPa - - - -
1777472172 23.33° C 27% 1016 hPa - - - -
1777471572 23.89° C 28% 1016 hPa - - - -
1777470972 23.33° C 28% 1016 hPa - - - -
1777470372 23.89° C 26% 1016.1 hPa - - - -
1777469772 24.44° C 26% 1016.2 hPa - - - -
1777469172 24.44° C 26% 1016.3 hPa - - - -
1777468572 24.44° C 26% 1016.5 hPa - - - -

* Rain since midnight (hover to see other rain measurements)
** Current wind speed in m/s (hover to see current wind gust speed)